This is the latest recevied weather packets stored in our database for station/object HG5PBP-13. If no packets are shown the sender has not sent any weather packets the latest 1 day(s).
| Time | Temp. | Humidity | Pressure | Rain* | Wind** | Luminosity | Snow |
|---|---|---|---|---|---|---|---|
| 1778026161 | 13.33° C | 6% | - | 0 mm | 0.89 m/s, 219° | - | - |
| 1778025861 | 13.33° C | 6% | - | 0 mm | 2.24 m/s, 223° | - | - |
| 1778025561 | 13.33° C | 6% | - | 0 mm | 2.68 m/s, 204° | - | - |
| 1778025261 | 13.33° C | 6% | - | 0 mm | 3.13 m/s, 296° | - | - |
| 1778024961 | 13.33° C | 6% | - | 0 mm | 1.79 m/s, 222° | - | - |
| 1778024661 | 13.33° C | 6% | - | 0 mm | 3.13 m/s, 234° | - | - |
| 1778024361 | 13.33° C | 6% | - | 0 mm | 1.79 m/s, 163° | - | - |
| 1778024061 | 13.33° C | 6% | - | 0 mm | 1.34 m/s, 299° | - | - |
| 1778023761 | 13.89° C | 6% | - | 0 mm | 0.89 m/s, 172° | - | - |
| 1778023460 | 13.89° C | 6% | - | 0 mm | 2.24 m/s, 176° | - | - |
| 1778023160 | 13.89° C | 6% | - | 0 mm | 2.68 m/s, 152° | - | - |
| 1778022861 | 13.89° C | 6% | - | 0 mm | 0.89 m/s, 272° | - | - |
| 1778022560 | 13.89° C | 6% | - | 0 mm | 1.34 m/s, 258° | - | - |
| 1778022262 | 13.89° C | 6% | - | 0 mm | 1.34 m/s, 239° | - | - |
| 1778021960 | 13.89° C | 6% | - | 0 mm | 1.34 m/s, 237° | - | - |
| 1778021660 | 13.89° C | 6% | - | 0 mm | 1.79 m/s, 270° | - | - |
| 1778021360 | 13.89° C | 6% | - | 0 mm | 0.89 m/s, 250° | - | - |
| 1778021060 | 14.44° C | 6% | - | 0 mm | 0.45 m/s, 52° | - | - |
| 1778020760 | 14.44° C | 6% | - | 0 mm | 3.13 m/s, 280° | - | - |
| 1778020460 | 14.44° C | 6% | - | 0 mm | 2.24 m/s, 263° | - | - |
| 1778020160 | 14.44° C | 6% | - | 0 mm | 2.24 m/s, 265° | - | - |
| 1778019860 | 14.44° C | 6% | - | 0 mm | 0.45 m/s, 279° | - | - |
| 1778019560 | 14.44° C | 6% | - | 0 mm | 2.68 m/s, 216° | - | - |
| 1778019260 | 14.44° C | 6% | - | 0 mm | 1.34 m/s, 256° | - | - |
| 1778018960 | 14.44° C | 6% | - | 0 mm | 0.89 m/s, 179° | - | - |
* Rain latest hour (hover to see other rain measurements)
** Current wind speed in m/s (hover to see current wind gust speed)